This demonstration page uses our WeatherBlox Daily Observations layout. Learn more.

39.92423, -83.80882

Hourly Observations for September 13, 2020

Temp ( °F °C ) Dew Point ( °F °C ) Humidity (%) Winds ( mph kmh ) Pressure ( in mb ) Visibility ( mi km ) Precip ( " mm )
12:53 am 00:53 Cloudy with Heavy Rain 73 23 73 23 100 100 S 14 22 29.96 1015 4 6.43736 0.04 1.016
12:56 am 00:56 Cloudy with Heavy Rain 73 22.8 73 22.8 100 100 S 15 24 29.98 1015 4 6.43736 0.06 1.524
1:05 am 01:05 Cloudy with Nearby Thunderstorms 72 22 72 22 100 100 SSW 9 15 29.96 1015 8 12.87472 0.02 0.508
1:14 am 01:14 Cloudy with Nearby Thunderstorms 72 22 72 22 100 100 SSW 7 11 29.97 1015 10 16.0934 0.04 1.016
1:20 am 01:20 Cloudy with Nearby Thunderstorms 72 22 72 22 100 100 SSW 9 15 29.97 1015 10 16.0934 0.04 1.016
1:41 am 01:41 Cloudy with Rain 72 22 72 22 100 100 SSW 8 13 29.97 1015 8 12.87472 0.07 1.778
1:56 am 01:56 Cloudy with Heavy Rain 70 21.1 70 21.1 100 100 S 10 17 29.98 1015 3 4.82802 0.1 2.54
2:07 am 02:07 Cloudy with Rain 70 21 70 21 100 100 VRB 6 9 29.97 1015 9 14.48406 0.01 0.254
2:56 am 02:56 Cloudy 71 21.7 71 21.7 100 100 S 7 11 29.95 1014 10 16.0934 0.03 0.762
3:23 am 03:23 Cloudy 70 21 70 21 100 100 S 5 7 29.95 1014 10 16.0934 0.01 0.254
3:37 am 03:37 Cloudy 70 21 70 21 100 100 S 6 9 29.94 1014 10 16.0934 0.02 0.508
3:56 am 03:56 Cloudy 70 21.1 70 21.1 100 100 S 7 11 29.95 1014 10 16.0934 0.02 0.508
4:54 am 04:54 Cloudy 70 21 70 21 100 100 SSW 6 9 29.94 1014 10 16.0934 0.02 0.508
4:56 am 04:56 Cloudy 70 21.1 70 21.1 100 100 SSW 6 9 29.95 1014 10 16.0934 0.02 0.508
5:05 am 05:05 Cloudy 70 21 70 21 100 100 VRB 6 9 29.94 1014 10 16.0934 0 0
5:42 am 05:42 Cloudy 70 21 70 21 100 100 SSW 5 7 29.94 1014 10 16.0934 0.01 0.254
5:56 am 05:56 Cloudy 70 21.1 70 21.1 100 100 SSW 5 7 29.95 1014 10 16.0934 0.01 0.254
6:56 am 06:56 Cloudy 71 21.7 71 21.7 100 100 SSW 6 9 29.96 1014 10 16.0934 0.01 0.254
7:56 am 07:56 Cloudy 71 21.7 71 21.7 100 100 SW 6 9 29.99 1016 7 11.26538 0.02 0.508
8:15 am 08:15 Cloudy 72 22 72 22 100 100 SW 7 11 29.97 1015 7 11.26538 0 0
8:56 am 08:56 Cloudy 71 21.7 71 21.7 100 100 SW 8 13 29.99 1016 7 11.26538 0.01 0.254
9:06 am 09:06 Cloudy with Heavy Rain 72 22 72 22 100 100 NW 18 30 29.97 1015 4 6.43736 0.001 0.001
9:25 am 09:25 Cloudy 70 21 70 21 100 100 NW 13 20 30 1016 10 16.0934 0.001 0.001
9:56 am 09:56 Cloudy 69 20.6 69 20.6 100 100 NNW 9 15 30.02 1017 10 16.0934 0.001 0.001
10:26 am 10:26 Mostly Cloudy 70 21 70 21 100 100 NW 8 13 30.01 1016 10 16.0934 0.01 0.254
10:56 am 10:56 Sunny 72 22.2 68 20 87 87 NW 10 17 30.04 1017 10 16.0934 0.02 0.508
11:56 am 11:56 Mostly Sunny 74 23.3 68 20 82 82 VRB 6 9 30.04 1017 10 16.0934 0.01 0.254
12:56 pm 12:56 Mostly Sunny 77 25 67 19.4 71 71 W 8 13 30.04 1017 10 16.0934 0.01 0.254
1:56 pm 13:56 Sunny 78 25.6 62 16.7 58 58 VRB 3 6 30.04 1017 10 16.0934 0.02 0.508
2:56 pm 14:56 Sunny 79 26.1 61 16.1 54 54 VRB 6 9 30.03 1017 10 16.0934 0.01 0.254
3:56 pm 15:56 Sunny 78 25.6 62 16.7 58 58 WNW 6 9 30.04 1017 10 16.0934 0.01 0.254
4:56 pm 16:56 Sunny 78 25.6 63 17.2 60 60 NNW 8 13 30.05 1018 10 16.0934 0 0
5:56 pm 17:56 Mostly Sunny 76 24.4 63 17.2 64 64 NNW 9 15 30.06 1018 10 16.0934 0.01 0.254
6:56 pm 18:56 Mostly Cloudy 74 23.3 64 17.8 71 71 undefined N/A 30.08 1019 10 16.0934 0 0
7:56 pm 19:56 Mostly Cloudy 70 21.1 64 17.8 82 82 N 6 9 30.09 1019 10 16.0934 0 0
8:56 pm 20:56 Mostly Clear 68 20 63 17.2 84 84 N 6 9 30.11 1020 10 16.0934 0 0
9:56 pm 21:56 Clear 66 18.9 63 17.2 90 90 N 5 7 30.14 1021 10 16.0934 0.01 0.254
10:56 pm 22:56 Clear 65 18.3 62 16.7 90 90 N 5 7 30.15 1021 10 16.0934 0 0
11:56 pm 23:56 Clear 62 16.7 62 16.7 100 100 N 3 6 30.16 1021 10 16.0934 0 0

Powered by AerisWeather